Regional Weather Roundup
Issued by NWS

Home | Current Version | Previous Version | Graphics & Text | Print | Product List | Glossary On
Versions: 1 2 3 4 5 6 7 8 9 10 11 12 13 14 15 16 17 18 19 20 21 22 23 24 25 26 27
000
ASUS45 KCYS 261710
RWRWY

WYOMING REGIONAL WEATHER ROUNDUP
NATIONAL WEATHER SERVICE CHEYENNE WY
1100 AM MDT TUE SEP 26 2017

NOTE:  "FAIR" INDICATES FEW OR NO CLOUDS BELOW 12,000 FEET
WITH NO SIGNIFICANT WEATHER AND/OR OBSTRUCTIONS TO VISIBILITY.

WYZ001-261800-
YELLOWSTONE NATIONAL PARK

CITY           SKY/WX    TMP DP  RH WIND       PRES   REMARKS
LK YELLOWSTONE NOT AVBL
W YELLOWSTONE  NOT AVBL

$$
WYZ002>013-054>058-071-098>099-261800-
NORTHERN WYOMING

CITY           SKY/WX    TMP DP  RH WIND       PRES   REMARKS
JACKSON        CLOUDY    41  32  70 VRB3      30.27F
CODY           FAIR      55  32  41 VRB3      30.22R
GREYBULL       FAIR      52  42  69 VRB5      30.20R
WORLAND        FAIR      51  36  56 CALM      30.21R
SHERIDAN       FAIR      58  41  53 CALM      30.18R
BUFFALO        FAIR      56  33  42 N7        30.20R
GILLETTE       FAIR      55  37  50 NW15      30.17R
HULETT         FAIR      54  41  62 SW12      30.17R
NEWCASTLE      FAIR      46  39  76 CALM      30.20R

$$
WYZ014>020-022>026-101>103-261800-
CENTRAL WYOMING

CITY           SKY/WX    TMP DP  RH WIND       PRES   REMARKS
BIG PINEY      FAIR      41  29  62 VRB3      30.27S
PINEDALE       FAIR      41  28  60 CALM      30.28S
DUBOIS         FAIR      43  27  52 CALM      30.24S
LANDER         FAIR      52  27  38 CALM      30.22S
RIVERTON       FAIR      48  32  53 VRB3      30.24R
CASPER         FAIR      51  37  58 SW14      30.22S
DOUGLAS        FAIR      55  36  48 NW12      30.21S

$$
WYZ021-027>030-104>119-261800-
SOUTHERN WYOMING

CITY           SKY/WX    TMP DP  RH WIND       PRES   REMARKS
EVANSTON       FAIR      44  33  65 N6        30.24S
FORT BRIDGER   SUNNY     45  30  57 SE5       30.28F
ROCK SPRINGS   FAIR      42  26  53 VRB5      30.26S
DIXON          FAIR      49  28  44 CALM      30.26S
RAWLINS        FAIR      46  31  55 E3        30.25S
SARATOGA       FAIR      45  28  53 CALM      30.26S
LARAMIE        FAIR      47  27  45 N8        30.24S
CHEYENNE       FAIR      53  27  36 N3        30.23R
TORRINGTON     FAIR      54  44  69 NW6       30.19F
PINE BLUFFS    FAIR      54  36  50 N3        30.22S

$$




USA.gov is the U.S. government's official web portal to all federal, state and local government web resources and services.